OneWeb SL0247

operational
NORAD ID: 48777 Int'l Des: 2021-045 Owner: ONEWEBN Country: UK Constellation: oneweb
LEOCIRCULARPOLARONEWEB_TYPE

About OneWeb SL0247

Description loading...

Live Position

Loading 3D Globe...

Upcoming Passes

Altitude History

Altitude vs Time

uPlot chart will show altitude changes over time

Two-Line Element Set

1 48777U 21045L 25303.91053144 .00000069 00000-0 15029-3 0 9990
2 48777 87.8958 304.9779 0002339 117.7209 242.4159 13.15548769214264
Epoch: Oct 30, 2025 • Age: 10 hours

Current Status

Altitude 1213.5 km
Velocity 7.25 km/s
Sub-Earth Point -30.90°S, 34.44°W
Launch Date May 28, 2021
Age 4.4 years
Type internet

Technical Details

Classification Payload
Mass 148.00 kg
Dry Mass 140.00 kg
Total Mass 148.00 kg
Length 1.30 m
Diameter 1.00 m
Span 5.00 m
Shape Trapezoid+2 pan
Manufacturer ONEWUS
Bus Type ARROW
Phase Status In Orbit
Owner/State ONEWEBN/UK

Large Constellations

Loading constellations...